Date String (YYYY-MM-DD hh:mm:ss) UTC,Instrument flags,Ambient pressure (hPa),Sample flow (lpm),Bypass flow (lpm),Sample temperature (°C),Ambient temperature (°C),ASC tube jacket temperature (°C),LED temperature (°C),Box temperature (°C),Sample RH (%),Span deviation,Mass concentration (μg/m³),Mass concentration (μg/m³),Mass concentration (μg/m³)
DateTimeUTC,F1_M11,P_M11,Q1_M11,Q2_M11,T1_M11,T2_M11,T3_M11,T4_M11,T5_M11,U1_M11,ZSPAN_M11,X0_M11,X2_M11,X1_M11
2022-11-28 02:00:00,,0814.9,5.00,0.00,21.2,19.5,00.0,30.4,22.9,09.1,0000.0,0001.15,0000.79,0000.69
2022-11-28 02:01:00,,0814.8,5.00,0.00,21.2,19.5,00.0,30.3,22.8,09.1,0000.0,0001.34,0000.80,0000.69
2022-11-28 02:02:00,,0814.8,5.00,0.00,21.2,19.5,00.0,30.3,22.8,09.0,0000.0,0001.35,0000.79,0000.69
2022-11-28 02:03:00,,0814.8,5.00,0.00,21.2,19.8,00.0,30.3,22.9,09.1,0000.0,0001.31,0000.78,0000.69
2022-11-28 02:04:00,,0814.8,5.01,0.00,21.3,20.8,00.0,30.2,23.2,09.0,0000.0,0001.33,0000.77,0000.68
2022-11-28 02:05:00,,0815.1,4.99,0.00,21.4,21.4,00.0,30.2,23.4,09.0,0000.0,0001.38,0000.76,0000.67
2022-11-28 02:06:00,,0814.8,5.00,0.00,21.4,20.9,00.0,30.3,23.4,09.0,0000.0,0001.36,0000.74,0000.66
2022-11-28 02:07:00,,0815.1,5.00,0.00,21.4,20.5,00.0,30.3,23.3,09.1,0000.0,0001.27,0000.73,0000.65
2022-11-28 02:08:00,,0815.0,5.00,0.00,21.4,20.1,00.0,30.3,23.2,09.0,0000.0,0001.31,0000.73,0000.65
2022-11-28 02:09:00,,0815.0,5.00,0.00,21.3,19.8,00.0,30.3,23.1,09.0,0000.0,0001.32,0000.74,0000.66
2022-11-28 02:10:00,,0814.8,5.01,0.00,21.3,19.7,00.0,30.3,23.0,09.1,0000.0,0001.36,0000.76,0000.66
2022-11-28 02:11:00,,0814.9,5.00,0.00,21.2,19.6,00.0,30.3,22.9,09.2,0000.0,0001.40,0000.78,0000.66
2022-11-28 02:12:00,,0814.9,5.00,0.00,21.2,19.5,00.0,30.3,22.9,09.1,0000.0,0001.24,0000.77,0000.66
2022-11-28 02:13:00,,0814.9,5.00,0.00,21.2,19.4,00.0,30.3,22.8,09.2,0000.0,0001.16,0000.77,0000.65
2022-11-28 02:14:00,,0814.8,5.00,0.00,21.1,19.4,00.0,30.3,22.8,09.2,0000.0,0001.17,0000.77,0000.64
2022-11-28 02:15:00,,0814.9,4.99,0.00,21.1,19.4,00.0,30.2,22.8,09.3,0000.0,0001.25,0000.78,0000.64
2022-11-28 02:16:00,,0814.9,4.99,0.00,21.1,19.4,00.0,30.2,22.8,09.4,0000.0,0001.24,0000.79,0000.64
2022-11-28 02:17:00,,0814.9,4.99,0.00,21.1,19.5,00.0,30.2,22.7,09.4,0000.0,0001.30,0000.82,0000.65
2022-11-28 02:18:00,,0815.0,5.00,0.00,21.0,19.5,00.0,30.2,22.7,09.4,0000.0,0001.26,0000.81,0000.65
2022-11-28 02:19:00,,0815.0,5.00,0.00,21.0,19.5,00.0,30.2,22.7,09.4,0000.0,0001.25,0000.82,0000.65
2022-11-28 02:20:00,,0815.0,5.01,0.00,21.0,19.5,00.0,30.1,22.7,09.4,0000.0,0001.25,0000.81,0000.64
2022-11-28 02:21:00,,0815.1,5.00,0.00,21.0,19.4,00.0,30.1,22.7,09.4,0000.0,0001.19,0000.78,0000.64
2022-11-28 02:22:00,,0815.3,4.99,0.00,21.0,19.5,00.0,30.1,22.7,09.6,0000.0,0001.14,0000.76,0000.64
2022-11-28 02:23:00,,0815.1,5.01,0.00,21.0,20.1,00.0,30.1,22.9,09.4,0000.0,0001.20,0000.77,0000.64
2022-11-28 02:24:00,,0815.2,5.00,0.00,21.2,21.2,00.0,30.0,23.1,09.2,0000.0,0001.20,0000.77,0000.64
2022-11-28 02:25:00,,0815.3,4.99,0.00,21.3,21.6,00.0,30.1,23.3,09.3,0000.0,0001.22,0000.78,0000.65
2022-11-28 02:26:00,,0815.4,4.99,0.00,21.3,21.3,00.0,30.2,23.4,09.4,0000.0,0001.17,0000.78,0000.65
2022-11-28 02:27:00,,0815.2,5.01,0.00,21.4,21.0,00.0,30.2,23.3,09.4,0000.0,0001.09,0000.76,0000.65
2022-11-28 02:28:00,,0815.2,5.01,0.00,21.4,20.7,00.0,30.2,23.3,09.6,0000.0,0001.61,0000.77,0000.66
2022-11-28 02:29:00,,0815.3,5.00,0.00,21.4,20.6,00.0,30.2,23.3,09.3,0000.0,0002.33,0000.77,0000.65
2022-11-28 02:30:00,,0815.2,5.00,0.00,21.4,20.4,00.0,30.3,23.3,09.4,0000.0,0002.25,0000.74,0000.65
2022-11-28 02:31:00,,0815.2,5.00,0.00,21.4,20.3,00.0,30.3,23.2,09.2,0000.0,0002.21,0000.73,0000.64
2022-11-28 02:32:00,,0815.3,4.99,0.00,21.4,20.3,00.0,30.3,23.2,09.4,0000.0,0002.21,0000.73,0000.65
2022-11-28 02:33:00,,0815.3,5.00,0.00,21.4,20.2,00.0,30.3,23.2,09.5,0000.0,0002.25,0000.75,0000.65
2022-11-28 02:34:00,,0815.3,5.00,0.00,21.4,20.2,00.0,30.3,23.2,09.6,0000.0,0003.03,0000.78,0000.66
2022-11-28 02:35:00,,0815.4,5.00,0.00,21.4,20.2,00.0,30.3,23.2,09.5,0000.0,0003.19,0000.79,0000.66
2022-11-28 02:36:00,,0815.1,5.00,0.00,21.4,20.1,00.0,30.3,23.2,09.5,0000.0,0003.17,0000.79,0000.66
2022-11-28 02:37:00,,0815.1,5.01,0.00,21.4,20.1,00.0,30.3,23.2,09.3,0000.0,0003.12,0000.77,0000.66
2022-11-28 02:38:00,,0815.2,5.01,0.00,21.4,20.1,00.0,30.3,23.2,09.6,0000.0,0003.16,0000.78,0000.65
2022-11-28 02:39:00,,0815.2,5.01,0.00,21.4,20.1,00.0,30.3,23.2,09.6,0000.0,0002.87,0000.75,0000.64
2022-11-28 02:40:00,,0815.1,4.99,0.00,21.4,20.1,00.0,30.3,23.2,09.5,0000.0,0001.85,0000.73,0000.64
2022-11-28 02:41:00,,0815.1,4.99,0.00,21.4,20.1,00.0,30.3,23.2,09.3,0000.0,0001.87,0000.74,0000.64
2022-11-28 02:42:00,,0815.1,5.01,0.00,21.4,20.1,00.0,30.3,23.3,09.4,0000.0,0001.88,0000.74,0000.64
2022-11-28 02:43:00,,0815.2,5.01,0.00,21.4,20.1,00.0,30.3,23.3,09.5,0000.0,0001.88,0000.73,0000.63
2022-11-28 02:44:00,,0815.0,5.00,0.00,21.4,20.1,00.0,30.3,23.3,09.4,0000.0,0001.86,0000.72,0000.63
2022-11-28 02:45:00,,0814.9,4.99,0.00,21.4,20.1,00.0,30.4,23.3,09.3,0000.0,0001.36,0000.70,0000.62
2022-11-28 02:46:00,,0814.9,5.00,0.00,21.4,20.2,00.0,30.3,23.2,09.3,0000.0,0000.97,0000.69,0000.62
2022-11-28 02:47:00,,0814.9,5.00,0.00,21.4,20.2,00.0,30.3,23.3,09.2,0000.0,0000.98,0000.70,0000.62
2022-11-28 02:48:00,,0814.8,5.01,0.00,21.4,20.2,00.0,30.4,23.3,09.2,0000.0,0001.05,0000.71,0000.61
2022-11-28 02:49:00,,0814.8,5.00,0.00,21.4,20.1,00.0,30.4,23.3,09.2,0000.0,0001.03,0000.71,0000.61
2022-11-28 02:50:00,,0814.9,5.00,0.00,21.4,20.1,00.0,30.4,23.3,09.1,0000.0,0001.03,0000.71,0000.61
2022-11-28 02:51:00,,0814.9,5.00,0.00,21.4,20.1,00.0,30.4,23.3,09.1,0000.0,0001.05,0000.72,0000.61
2022-11-28 02:52:00,,0814.9,5.00,0.00,21.4,20.0,00.0,30.4,23.3,09.1,0000.0,0001.05,0000.72,0000.61
2022-11-28 02:53:00,,0814.9,4.99,0.00,21.4,20.1,00.0,30.4,23.3,09.2,0000.0,0001.05,0000.72,0000.61
2022-11-28 02:54:00,,0814.8,4.98,0.00,21.4,20.1,00.0,30.4,23.3,09.2,0000.0,0001.03,0000.71,0000.60
2022-11-28 02:55:00,,0815.0,5.00,0.00,21.4,20.0,00.0,30.4,23.3,09.2,0000.0,0001.02,0000.70,0000.59
2022-11-28 02:56:00,,0814.8,5.01,0.00,21.4,20.0,00.0,30.4,23.3,09.3,0000.0,0001.02,0000.71,0000.59
2022-11-28 02:57:00,,0814.9,5.00,0.00,21.4,20.0,00.0,30.4,23.3,09.2,0000.0,0000.97,0000.70,0000.58
2022-11-28 02:58:00,,0814.8,4.99,0.00,21.4,20.0,00.0,30.4,23.2,09.1,0000.0,0001.05,0000.73,0000.58
2022-11-28 02:59:00,,0815.1,5.00,0.00,21.4,20.0,00.0,30.4,23.2,09.0,0000.0,0001.00,0000.72,0000.58
